{"data":{"norad_id":58827,"intl_designator":"2024-017B","name":"STARLINK-31271","alt_names":[],"object_type":"PAYLOAD","status":"ACTIVE","operator":null,"country":"US","launch_date":"2024-01-24","launch_site_code":"AFWTR","launch_vehicle":null,"mission":null,"orbit_class":"UNKNOWN","rcs_meters":null,"size_class":null,"mass_kg":null,"dimensions":null,"purposes":["comms"],"wikipedia_slug":null,"has_3d_model":false,"image_url":null,"decayed_at":null,"tle_current":{"epoch":"2026-05-25T04:16:11.329824Z","epoch_age_seconds":52958,"freshness":"FRESH","line1":"1 58827U 24017B   26145.17790891  .00017790  00000+0  61107-3 0  9995","line2":"2 58827  53.1578 209.2737 0001296  86.1468 273.9681 15.30214062131760","mean_motion":15.30214062,"eccentricity":0.0001296,"inclination_deg":53.1578,"raan_deg":209.2737,"arg_perigee_deg":86.1468,"mean_anomaly_deg":273.9681,"bstar":0.00061107,"rev_number":13176,"period_min":94.10448091935,"perigee_km":474.28489415677,"apogee_km":476.06127213032,"semimajor_km":6853.3100831435,"source":"CELESTRAK","updated_at":"2026-05-25T13:38:18.752881Z"}}}